Temperature
13 14 13 13 12 11 11 9 9 11 11 11 11 11 12 13 13 14 14 14 13 13 13 13 12 12 12 11 11 11 11 11 11 11 11 11 12 12 12 12 12 12 12 13
14 14 14 13 13 12 11 11 11 11 11 11 13 13 13 13 14 14 14 14 14 14 13 13 13 12 12 11 11 11 11 11 11 11 11 11 11 11 11 11 11 12 12 12
12 13 13 13 13 12 12 11 11 11 11 12 13 13 14 14 14 14 14 14 14 14 14 13 13 13 12 12 11 11 11 11 11 10 10 10 10 11 11 11 11 11 11 11
11 13 13 13 13 13 13 13 11 12 12 13 14 14 14 14 14 14 14 14 14 14 14 14 13 13 12 12 12 11 11 11 11 10 10 10 10 10 10 10 10 11 11 11
10 12 13 14 13 13 13 13 12 12 13 14 14 14 14 14 14 14 14 14 14 14 14 14 14 13 13 12 12 12 11 11 11 10 10 10 10 10 10 10 10 10 10 11
10 14 14 15 14 15 14 13 14 14 14 14 13 11 12 15 14 14 14 14 14 14 14 14 14 13 13 13 12 12 11 11 11 11 10 10 10 10 10 10 10 10 10 10
11 12 12 13 14 15 12 13 15 15 15 14 14 13 15 15 14 14 14 14 14 14 14 14 14 14 13 13 13 12 12 11 11 11 10 10 10 10 10 10 10 10 10 10
10 12 13 14 13 13 13 16 16 16 16 15 15 15 15 15 15 14 14 14 14 14 14 14 14 14 14 13 13 12 12 11 11 11 10 10 10 10 10 10 10 9 9 9
11 13 15 15 16 17 17 17 17 17 16 16 15 15 15 15 15 14 14 14 14 14 14 14 14 14 14 13 13 12 12 11 11 11 10 10 10 10 10 10 9 9 9 9
10 11 14 16 16 17 17 18 17 17 16 16 16 15 15 15 15 15 14 14 14 14 14 14 14 14 14 13 13 13 12 12 11 11 10 10 10 10 10 9 9 9 9 9
12 12 14 16 17 17 17 17 17 17 16 16 16 16 15 15 15 15 15 15 14 14 14 14 14 14 14 13 13 13 12 12 11 11 10 10 10 10 9 9 9 9 8 8
14 16 15 18 18 17 17 17 17 17 16 16 16 16 15 15 15 15 15 15 15 15 14 14 14 14 14 14 13 13 12 12 11 11 10 10 10 10 9 9 9 8 8 8
20 20 20 19 19 18 17 17 17 17 16 16 16 16 15 15 15 15 15 15 15 15 14 14 14 14 14 14 13 13 12 12 11 11 11 10 10 10 10 9 9 9 8 8
20 20 19 19 19 18 17 17 17 17 16 16 16 16 15 15 15 15 15 15 15 15 14 14 14 14 14 14 13 13 13 12 12 11 11 11 10 10 10 9 9 9 9 9
20 20 20 20 19 18 17 17 16 16 16 16 15 15 15 15 15 15 15 15 15 15 14 14 14 14 14 14 13 13 13 12 12 12 11 11 11 10 10 10 9 9 9 9
21 20 19 19 19 18 17 16 16 16 16 16 16 15 15 15 15 15 15 15 15 14 14 14 14 14 14 14 14 13 13 13 12 12 12 11 11 11 10 10 10 9 9 9
20 19 19 19 19 18 18 17 16 16 16 16 16 16 15 15 15 15 15 15 14 14 14 14 14 14 14 14 13 13 13 13 13 12 12 12 11 11 11 10 10 10 9 9
21 21 21 20 20 19 18 17 17 16 16 16 16 15 15 15 15 15 15 14 14 14 14 14 14 13 13 14 13 13 13 13 13 13 12 12 12 11 11 11 10 10 9 9
20 20 20 20 19 19 18 18 17 16 16 16 15 15 15 15 15 15 15 14 14 14 14 14 14 13 13 13 13 13 13 13 13 13 13 12 12 12 12 11 11 10 10 10
20 20 20 19 19 19 18 18 17 16 16 16 15 15 15 15 15 15 15 14 14 14 14 14 14 13 13 13 13 13 13 13 13 13 13 13 12 12 12 12 11 11 10 10
20 20 19 19 19 18 18 18 17 17 16 16 15 15 15 15 15 15 15 15 15 14 14 13 13 13 13 13 13 13 13 13 13 13 13 13 12 12 12 12 12 11 11 11
19 19 19 18 18 18 18 17 17 17 16 16 16 15 15 15 15 15 15 15 15 14 14 13 13 13 13 13 13 13 13 13 13 13 12 12 12 12 12 12 12 12 11 11
18 18 18 18 18 18 17 17 17 17 16 16 16 16 16 16 15 15 15 15 14 14 13 13 13 13 13 13 13 13 13 13 13 12 12 12 12 12 12 12 12 12 12 11
15 16 16 16 16 16 16 16 16 16 16 16 16 16 16 16 15 15 15 15 14 14 14 13 13 13 13 13 13 13 13 13 13 12 12 12 12 12 12 12 12 12 12 12
13 13 14 14 15 15 15 15 15 15 16 16 16 16 16 16 15 15 15 15 14 14 14 13 13 13 13 13 13 13 13 13 13 13 12 12 12 12 12 12 12 12 12 12
11 11 11 12 12 13 13 14 14 14 15 15 15 15 15 15 15 15 15 14 14 14 14 13 13 13 13 13 13 13 13 13 13 13 12 12 12 12 12 12 12 12 12 12
9 10 10 10 11 11 11 12 12 13 13 13 14 14 14 14 14 14 14 14 14 14 14 13 13 13 12 12 12 12 12 12 12 12 12 12 12 12 12 12 12 12 12 12
Wind_Speed
3 3 3 2 2 3 3 5 5 5 4 7 7 6 7 7 8 8 8 8 8 7 6 7 7 7 7 7 8 8 8 9 8 8 8 9 9 9 9 10 10 9 9 9
2 2 2 0 2 3 3 4 3 2 5 7 6 4 5 7 7 7 8 8 8 8 7 6 6 6 6 6 7 7 7 8 7 8 8 8 8 8 9 10 9 10 10 9
0 1 4 5 7 7 5 5 7 6 6 4 3 5 5 6 6 7 7 7 7 7 6 6 5 4 5 5 5 6 7 7 7 7 7 7 7 8 8 8 9 10 10 10
3 2 5 7 4 7 6 6 8 7 6 6 6 5 5 5 5 7 7 7 7 7 7 5 4 4 3 3 5 6 6 7 7 7 7 7 7 8 7 7 7 7 9 9
4 2 7 6 5 8 7 6 9 9 7 5 3 3 5 4 3 4 5 5 5 5 5 5 5 4 3 4 4 5 6 6 6 6 7 7 7 7 6 6 7 7 7 9
4 2 5 7 5 7 5 5 8 10 9 6 6 1 5 4 4 5 5 4 5 6 5 5 5 3 2 3 4 4 4 4 5 6 6 7 6 6 5 5 6 6 7 8
5 5 8 6 7 10 5 8 6 11 9 9 9 7 5 4 3 3 4 5 6 6 6 6 6 3 3 3 3 2 2 4 5 6 6 6 5 5 5 6 6 7 7 7
5 4 8 6 10 10 11 3 7 10 9 10 9 6 5 3 2 4 5 5 6 6 6 6 6 4 4 4 3 2 4 5 6 6 5 5 6 6 6 6 7 7 7 8
9 8 5 9 9 7 7 7 8 9 9 9 8 6 4 2 0 3 4 4 4 5 5 6 6 5 5 5 2 3 5 5 5 6 6 5 6 6 6 6 6 7 7 7
5 9 7 9 6 5 8 8 9 9 9 9 8 7 5 3 1 1 3 3 4 4 5 6 7 6 5 4 1 4 5 4 4 4 4 5 5 5 5 6 6 6 7 7
6 7 4 7 11 9 8 7 8 8 9 10 9 7 6 4 3 1 1 2 2 3 3 5 6 6 6 4 2 3 4 4 3 3 3 3 3 3 3 2 3 3 4 4
8 8 8 8 10 11 10 10 11 10 8 7 8 8 7 5 3 2 2 1 2 3 3 4 5 6 6 4 1 3 3 3 2 2 1 1 1 2 2 1 4 5 6 5
6 6 7 3 7 12 12 12 12 11 11 8 7 7 7 5 4 3 2 2 2 3 3 3 4 5 6 5 1 2 3 3 3 3 2 2 1 1 3 4 4 6 8 8
5 6 5 6 8 11 11 11 11 10 9 9 8 6 6 5 4 4 4 4 3 3 3 2 3 5 6 5 2 1 2 3 3 3 3 3 2 2 1 1 3 3 5 7
10 9 7 6 7 10 9 9 9 9 8 8 7 7 7 7 7 6 5 3 2 2 3 2 3 5 6 4 2 0 1 2 2 2 2 2 2 2 1 0 1 2 3 3
9 7 6 7 9 11 10 11 11 11 10 9 8 8 9 8 7 5 4 4 4 4 4 3 4 4 5 4 2 1 1 2 3 3 2 2 2 2 2 2 1 1 2 2
10 10 9 8 10 12 13 13 13 12 11 10 10 10 8 7 5 6 6 5 5 5 5 4 4 4 4 2 2 1 1 2 2 2 3 4 4 4 4 3 3 3 2 2
12 12 11 10 11 13 13 12 12 12 11 11 10 9 9 9 9 9 7 4 3 4 5 6 5 3 3 2 1 2 2 2 2 3 3 4 4 4 4 4 5 4 3 1
11 10 11 10 11 12 13 12 12 12 11 10 10 10 10 10 10 8 5 5 6 6 6 6 7 5 4 3 1 1 2 3 3 3 3 4 4 4 4 5 5 5 4 3
10 9 10 9 9 9 11 11 11 10 10 10 10 10 9 9 9 8 7 7 8 7 6 5 5 5 5 4 2 2 3 3 4 4 3 3 4 4 5 5 5 5 5 5
8 8 9 9 9 9 9 10 11 11 10 10 11 11 11 10 9 8 7 7 8 8 7 8 6 5 5 5 3 2 3 4 4 4 4 4 4 5 5 6 6 6 6 5
4 5 7 7 7 7 6 7 9 9 9 10 10 10 9 9 8 8 8 8 7 8 7 6 6 8 8 6 4 4 4 4 4 4 4 4 4 5 5 6 6 6 6 6
5 4 4 4 5 4 4 4 6 7 9 10 10 11 11 10 8 7 8 9 7 9 7 7 9 12 11 7 5 5 5 5 5 5 5 5 5 5 6 6 6 6 6 6
8 8 6 5 6 6 3 0 2 4 5 6 8 9 8 7 6 8 8 6 8 10 8 10 14 14 12 6 6 6 6 5 5 5 5 5 5 5 5 6 6 6 6 7
9 9 10 10 9 6 4 3 3 2 1 2 4 5 5 6 7 6 6 8 10 9 7 10 14 14 9 6 7 7 6 6 6 5 5 5 5 5 5 6 6 6 6 7
7 6 6 6 5 4 4 5 4 4 3 2 3 2 3 4 5 5 4 7 9 9 8 7 7 8 7 7 7 7 7 7 7 6 6 6 6 6 5 6 7 6 6 6
5 4 4 4 4 4 4 4 4 4 4 3 3 4 3 3 3 4 5 5 6 6 7 7 6 7 7 7 7 7 7 7 7 7 6 6 6 6 6 7 6 6 5 6
Wind_Direction
87 98 106 97 97 116 124 159 164 211 244 267 278 286 298 310 325 336 341 343 344 341 341 344 350 353 357 1 2 7 17 22 16 15 21 26 29 30 33 37 40 36 37 33
53 68 81 53 199 149 149 169 187 218 263 254 261 276 296 310 324 331 332 336 338 339 341 342 345 345 352 358 358 8 19 17 13 19 24 25 27 30 33 32 32 34 32 28
205 19 11 280 219 193 199 197 179 204 235 246 258 276 284 295 308 311 315 324 331 330 326 323 327 332 341 343 357 16 19 17 17 21 26 22 28 33 30 27 30 32 27 24
118 92 265 250 209 174 185 213 201 217 233 224 231 260 274 268 279 300 314 325 326 323 322 318 318 331 339 357 12 22 23 19 18 23 26 25 33 32 26 24 28 27 25 21
125 204 278 279 187 169 177 242 207 205 224 228 221 349 312 277 275 284 299 307 306 309 309 314 320 329 358 5 12 25 25 23 22 27 32 32 33 27 22 30 32 28 22 21
133 194 250 252 194 149 112 267 214 187 200 187 135 118 272 286 309 317 329 331 334 335 340 346 336 339 12 359 6 14 20 35 40 42 44 38 34 32 27 34 29 21 22 19
164 227 262 241 149 122 150 243 201 178 182 170 181 205 233 295 313 333 344 349 355 359 360 346 339 0 12 359 350 355 60 66 56 50 52 44 40 34 32 31 29 22 17 11
161 205 258 188 147 179 210 205 168 173 174 179 203 225 244 264 311 359 359 356 1 3 358 352 1 18 11 352 334 68 92 81 66 52 50 49 48 40 33 29 30 22 14 11
190 213 233 186 194 199 168 170 177 175 179 179 189 209 213 206 295 353 357 357 358 1 359 0 4 13 4 336 348 105 101 93 79 66 54 48 52 46 37 32 32 24 17 11
242 258 235 220 232 198 182 182 177 172 168 169 180 193 193 189 222 322 340 349 352 1 5 354 349 358 350 337 51 115 115 113 97 80 61 47 47 47 47 36 30 23 15 7
249 267 259 230 210 199 188 172 158 161 170 175 176 184 186 193 213 245 302 328 346 351 343 337 341 348 350 358 76 112 122 128 117 101 86 54 42 38 42 26 15 10 354 351
220 215 192 224 201 180 170 174 171 165 170 178 178 181 180 190 204 211 244 295 329 338 335 334 343 345 347 353 60 135 136 149 156 154 139 88 10 349 337 335 11 28 25 22
202 190 183 234 179 174 177 178 173 173 172 176 181 179 174 184 197 204 224 256 289 305 308 322 340 342 342 344 8 154 167 175 177 187 197 208 241 326 337 344 14 36 31 35
180 138 168 192 184 182 179 176 172 174 175 171 168 168 169 177 189 205 226 240 254 283 300 311 330 333 332 337 360 144 168 183 183 202 212 214 220 230 255 342 347 341 2 29
197 190 192 183 166 168 167 159 164 176 176 174 171 171 174 183 201 217 226 229 231 271 292 298 313 318 329 339 355 127 176 199 195 204 212 208 203 195 189 190 329 326 340 1
183 180 162 161 172 171 166 172 179 187 184 182 183 189 193 195 203 216 225 212 209 246 266 266 278 299 320 337 353 359 264 255 213 202 207 195 192 189 189 197 232 286 313 321
156 180 189 191 189 186 186 185 187 187 185 188 195 195 190 188 202 225 233 223 219 238 246 233 249 292 313 334 350 325 296 290 266 212 213 209 205 207 204 202 218 239 256 260
196 192 184 183 186 190 193 189 186 184 188 196 192 182 183 192 210 224 226 214 221 252 248 230 234 266 277 300 332 332 313 287 268 251 239 223 216 209 202 207 217 228 239 249
203 197 193 192 186 185 188 190 191 192 191 185 182 190 199 206 215 218 199 191 213 240 252 233 225 229 240 257 283 312 312 299 287 272 254 242 227 211 207 210 216 219 217 212
199 196 192 192 184 181 188 188 185 188 190 184 186 194 205 216 214 204 191 209 221 219 222 213 208 218 230 239 244 272 295 294 287 283 267 244 231 225 218 216 216 216 214 212
188 185 185 186 189 192 191 184 181 191 191 184 188 198 209 217 205 188 187 227 244 221 217 221 210 216 219 218 224 243 275 282 281 277 271 257 243 235 228 224 220 217 215 213
156 168 176 178 181 192 194 184 187 193 189 191 199 203 206 213 203 198 211 222 235 200 196 209 210 217 214 209 205 227 253 266 269 268 266 259 248 242 237 231 226 223 217 212
68 96 124 149 169 175 158 173 191 194 196 199 202 203 206 210 194 191 227 232 219 210 201 212 217 220 220 210 204 219 238 252 259 259 260 258 251 245 242 238 230 224 218 213
49 55 63 77 88 89 91 167 202 201 207 214 214 211 206 208 217 220 224 228 198 203 208 221 223 224 218 198 203 215 227 239 246 251 257 261 259 253 246 241 236 228 221 217
43 48 51 57 59 50 29 23 53 60 199 240 246 230 214 204 215 226 216 220 218 213 217 228 229 224 210 199 205 214 222 231 235 236 243 253 259 258 252 244 237 231 223 219
37 44 49 57 57 44 36 45 49 35 28 355 317 282 249 234 232 236 227 223 221 216 215 221 221 219 206 207 213 218 222 235 245 243 238 244 251 254 253 248 243 234 228 223
30 40 42 40 34 32 38 44 42 25 13 359 325 318 305 274 247 238 233 230 224 222 222 220 214 211 211 213 218 221 223 225 229 233 236 238 242 245 248 250 245 238 229 222
Height
1578 1576 1578 1579 1581 1583 1586 1590 1593 1589 1587 1583 1580 1578 1576 1574 1571 1569 1566 1563 1560 1557 1554 1551 1548 1545 1541 1538 1535 1532 1529 1526 1523 1520 1518 1515 1513 1511 1509 1507 1506 1505 1504 1504
1579 1577 1578 1580 1580 1581 1583 1585 1586 1585 1585 1578 1577 1577 1575 1574 1572 1570 1567 1564 1562 1559 1556 1553 1550 1547 1544 1542 1539 1536 1533 1529 1526 1524 1521 1519 1516 1514 1512 1510 1509 1507 1506 1505
1586 1581 1581 1584 1577 1578 1579 1579 1581 1584 1580 1576 1576 1575 1574 1573 1572 1570 1568 1566 1563 1560 1557 1554 1552 1549 1547 1544 1542 1539 1536 1533 1530 1527 1525 1522 1520 1518 1516 1514 1512 1510 1509 1507
1589 1586 1589 1577 1567 1569 1573 1573 1574 1574 1574 1574 1574 1574 1573 1573 1572 1570 1568 1566 1563 1560 1558 1555 1553 1551 1548 1546 1544 1541 1539 1535 1532 1530 1527 1525 1523 1521 1519 1518 1516 1514 1512 1510
1591 1590 1583 1570 1565 1567 1571 1571 1567 1569 1570 1571 1573 1573 1572 1571 1571 1570 1568 1566 1564 1561 1558 1556 1554 1551 1550 1548 1546 1543 1541 1538 1535 1533 1530 1528 1526 1524 1522 1521 1518 1516 1514 1512
1588 1583 1581 1566 1559 1560 1567 1570 1561 1563 1566 1569 1571 1575 1573 1570 1570 1569 1568 1566 1563 1561 1559 1557 1554 1552 1550 1548 1547 1545 1543 1540 1538 1535 1533 1531 1529 1527 1525 1523 1521 1519 1516 1514
1585 1583 1573 1557 1556 1561 1575 1567 1555 1558 1562 1566 1568 1570 1570 1569 1569 1568 1567 1565 1563 1561 1559 1557 1555 1553 1551 1549 1547 1546 1544 1542 1540 1538 1535 1533 1531 1530 1528 1525 1523 1521 1519 1516
1583 1581 1572 1552 1555 1558 1556 1551 1552 1556 1559 1563 1565 1567 1568 1568 1568 1567 1566 1565 1563 1561 1560 1558 1556 1554 1552 1550 1548 1547 1546 1544 1542 1540 1538 1536 1534 1532 1530 1528 1526 1524 1521 1519
1563 1557 1545 1544 1544 1545 1547 1549 1551 1554 1558 1561 1563 1565 1566 1567 1567 1567 1566 1565 1563 1562 1560 1558 1556 1554 1552 1551 1549 1548 1547 1546 1544 1542 1540 1539 1537 1535 1532 1530 1528 1526 1523 1521
1552 1543 1540 1540 1541 1543 1545 1547 1549 1553 1556 1559 1561 1563 1565 1566 1566 1566 1565 1564 1563 1562 1561 1559 1557 1555 1553 1552 1550 1549 1548 1547 1546 1544 1543 1541 1539 1537 1535 1533 1530 1528 1526 1523
1544 1537 1535 1534 1536 1539 1543 1545 1548 1552 1555 1557 1560 1562 1563 1565 1565 1565 1565 1564 1563 1562 1560 1559 1557 1555 1554 1553 1551 1550 1549 1548 1547 1546 1545 1543 1541 1539 1537 1535 1533 1531 1529 1526
1535 1527 1528 1527 1529 1535 1539 1542 1546 1549 1553 1556 1558 1560 1562 1563 1564 1564 1564 1563 1562 1561 1560 1559 1557 1556 1554 1553 1552 1551 1550 1549 1549 1548 1546 1545 1543 1542 1540 1537 1535 1533 1531 1529
1522 1523 1524 1525 1527 1531 1535 1540 1544 1547 1550 1553 1556 1558 1560 1561 1562 1563 1563 1562 1562 1561 1560 1558 1557 1556 1554 1553 1552 1552 1551 1550 1549 1549 1548 1546 1545 1543 1541 1540 1537 1535 1533 1531
1520 1521 1522 1523 1525 1528 1532 1537 1541 1545 1548 1551 1553 1556 1557 1559 1560 1561 1561 1561 1561 1560 1559 1558 1557 1555 1554 1553 1552 1552 1551 1550 1550 1549 1548 1547 1546 1545 1543 1541 1539 1537 1535 1533
1515 1518 1520 1521 1523 1525 1529 1534 1538 1541 1544 1548 1550 1552 1555 1556 1558 1559 1559 1559 1559 1559 1558 1557 1556 1555 1553 1552 1552 1551 1551 1550 1550 1549 1548 1548 1546 1545 1544 1542 1540 1538 1536 1534
1511 1514 1516 1518 1519 1522 1525 1529 1532 1536 1540 1544 1546 1549 1552 1554 1555 1556 1557 1557 1557 1557 1556 1555 1554 1553 1552 1551 1551 1550 1550 1549 1549 1549 1548 1547 1546 1545 1544 1543 1541 1539 1538 1536
1507 1509 1512 1514 1515 1517 1520 1523 1527 1532 1536 1540 1543 1546 1549 1550 1552 1553 1554 1554 1554 1554 1554 1553 1552 1551 1550 1549 1549 1548 1548 1548 1547 1547 1547 1546 1546 1545 1544 1543 1542 1540 1539 1537
1503 1505 1508 1509 1511 1513 1516 1519 1523 1528 1531 1536 1540 1542 1545 1546 1548 1550 1551 1551 1551 1551 1551 1550 1549 1549 1548 1547 1547 1546 1546 1546 1545 1545 1545 1545 1545 1544 1543 1542 1541 1540 1539 1538
1496 1500 1504 1506 1508 1510 1512 1515 1519 1523 1527 1531 1535 1537 1540 1542 1544 1546 1547 1547 1547 1547 1547 1547 1546 1546 1545 1544 1544 1544 1543 1543 1543 1542 1543 1543 1542 1542 1542 1541 1541 1540 1539 1538
1490 1495 1499 1502 1504 1506 1509 1512 1516 1519 1523 1526 1530 1533 1535 1538 1540 1541 1542 1543 1543 1544 1543 1543 1543 1542 1542 1542 1541 1541 1540 1540 1539 1539 1539 1540 1540 1540 1540 1540 1539 1539 1538 1537
1486 1490 1493 1497 1500 1503 1506 1509 1512 1515 1518 1521 1524 1527 1530 1533 1535 1536 1537 1538 1539 1539 1539 1539 1539 1539 1539 1538 1538 1538 1537 1537 1536 1536 1536 1536 1536 1537 1537 1537 1537 1537 1536 1536
1483 1486 1490 1493 1496 1499 1502 1505 1508 1511 1514 1517 1519 1522 1525 1527 1529 1530 1532 1533 1534 1535 1534 1534 1535 1535 1535 1535 1535 1534 1534 1533 1533 1533 1532 1533 1533 1533 1533 1533 1534 1534 1534 1534
1481 1484 1487 1490 1493 1496 1499 1501 1504 1507 1509 1512 1514 1517 1519 1521 1523 1525 1526 1528 1529 1529 1529 1529 1530 1530 1531 1531 1531 1531 1530 1530 1529 1529 1529 1529 1529 1529 1529 1529 1530 1530 1530 1530
1481 1483 1485 1487 1490 1492 1495 1497 1500 1502 1504 1507 1509 1511 1514 1516 1517 1519 1521 1522 1523 1523 1524 1524 1525 1525 1525 1526 1526 1526 1526 1526 1526 1525 1525 1525 1525 1525 1525 1525 1526 1526 1526 1526
1482 1483 1484 1486 1488 1490 1492 1494 1495 1497 1499 1501 1503 1506 1507 1509 1511 1513 1515 1516 1517 1518 1518 1519 1519 1520 1520 1520 1521 1521 1521 1521 1521 1521 1521 1521 1520 1520 1520 1521 1521 1521 1522 1522
1484 1484 1485 1486 1487 1488 1490 1491 1492 1493 1495 1497 1498 1500 1502 1503 1505 1507 1508 1509 1511 1512 1512 1513 1514 1514 1514 1515 1515 1516 1516 1516 1516 1516 1516 1516 1516 1515 1515 1516 1516 1516 1517 1517
1485 1485 1486 1486 1487 1487 1488 1489 1490 1490 1492 1493 1494 1496 1497 1498 1499 1500 1501 1503 1504 1505 1506 1507 1508 1508 1509 1509 1509 1510 1510 1510 1511 1511 1511 1510 1510 1510 1510 1510 1510 1511 1511 1512